Location: Allonne
(49.4086°N, 2.1143°E)
Time: 09:25:36
(UTC+00:00)

CZ-4 R/B - Pass Details

Date: 03 February 2023
Orbit: 526 x 587 km, 97.7° (Epoch: 24 March)

Event Time Altitude Azimuth Distance (km) Brightness Sun altitude
Rises 19:33:14 0° 189° (S) 2,803 5.0 -26.6°
Reaches altitude 10° 19:35:34 10° 199° (SSW) 1,901 4.2 -27.0°
Maximum altitude 19:39:17 32° 264° (W) 1,005 3.1 -27.6°
Drops below altitude 10° 19:42:59 10° 328° (NNW) 1,887 4.5 -28.2°
Sets 19:45:18 0° 339° (NNW) 2,778 5.3 -28.6°
